DELTA 1 DEB, 10749

Orbit data source: Space-Track

DELTA 1 DEB, 10749 is space debris in SSO originally from a launch on Thu, 29 Jul 1976 UTC launched from the Air Force Western Test Range (AFWTR). Debris objects in space refer to the collection of defunct objects orbiting the Earth. Examples of debris include non-operational satellites, rocket bodies, and fragments generated from explosions, collisions, or faulty payload assembly.

Loading next visibility...
Identifier
10749, 1976-077AW
Orbit
SSO
Country
Flag of USUS
Related business
Manufacturer
Unknown
Mission
Spacecraft
Bus & Motor
Unknown
Mass
Unknown
Launch date (UTC)
1976-07-29 (50 years ago)
Launch vehicle
Unknown
Launch site
Air Force Western Test Range (AFWTR)
Object type
Payload
Rocket body
Debris
Shape & HBR
Unknown shape, 0.2 m
Radar Cross Section
Medium (>0.1 m² and <1 m²)

Expand to show TLE details & history
Last TLE update: 11 hours ago

TLE from 11 hours ago
0 DELTA 1 DEB
1 10749U 76077AW  26118.83978112 -.00000045  00000-0 -11356-4 0  9996
2 10749 102.3410 208.7774 0091083  92.5807  23.2484 12.23536172222552
Epoch: 2026-04-28T20:09Z
TLE epoch observation values (Epoch: 2026-04-28T20:09:17.088Z)
Latitude
61.27542°
Longitude
-106.94608°
Altitude
1,520.954 km
Speed
7.14 km/s
True Right ascension
03h 28m 44s
True Declination
61° 08' 39"
Sunlit
Object was in daylight at epoch
Visualization orbit readout
Latitude
Unknown
Longitude
Unknown
Altitude
Unknown
Speed
Unknown
Apparent Right ascension
Unknown
Apparent Declination
Unknown
Sunlit
N/A
Visualization observer readout
Local Sidereal Time
14:44:40
Azimuth
Unknown
Elevation
Unknown
Doppler factor
Unknown
Orbital elements
Apogee altitude
1,647.231 km
Perigee altitude
1,502.355 km
Semi-major axis
7,952.93 km
Eccentricity
0.00911
Inclination
102.341°
RAAN
208.7774°
Arg. of periapsis
92.5807°
True anomaly
23.66473°
Mean anomaly
23.2484°
Eccentric anomaly
23.45613°
Mean motion
3.06022 °/min
Orbital period
117.64 mins
BSTAR
-0.000011356
Loading maneuver chart data...
Computing Atmospheric mass density...
Loading historical data...
Loading historical data...
Loading historical data...
Loading historical data...
Loading historical data...
Loading historical data...
Loading historical data...

Documentation

Showing up to 5 results
|